Weather in Rasskazovo

Russia / Republic of Mordovia     53°56′54″N   45°23′00″E
temp.,
°C
wind,
m/s
gust,
m/s
humid.,
%
clouds,
%
prec.,
mm/h
press.,
hPa
HPBL,
m
13 june, sun
sun1300:00+15sse229148 0.0 101017
03:00+13sse22945 0.0 101028
06:00+16sse37915 0.0 1010232
09:00+20ssw477897 0.1 1010629
12:00+21ssw687343 1.9 10101265
15:00+21ssw6107967 4.6 10111149
18:00+20ssw59845 0.8 1011650
21:00+16s359390 1.3 101279
14 june, mon
mon1400:00+15s349544 0.0 101374
03:00+14s229511 0.0 101423
06:00+17s23914 0.0 1015152
09:00+21ssw23815 0.8 1015455
12:00+23sw236798 1.3 10161176
15:00+24ssw336549 1.6 10161228
18:00+22wsw238199 0.6 1015115
21:00+18w118893 1.1 101511
15 june, tue
tue1500:00+17n2290100 0.4 101511
03:00+16ne2291100 0.0 101411
06:00+18ene2389100 0.0 1014129
09:00+22e347798 0.0 1014530
12:00+24ese2370100 1.3 1013799
15:00+24sse226993 1.4 1012782
18:00+23sse358132 0.1 1011328
21:00+18e118494 1.1 101111
16 june, wed
wed1600:00+17ese228894 2.1 101112
03:00+17e2289100 2.1 101017
06:00+18nne129078 1.0 101084
09:00+22ne337991 1.1 1010367
12:00+25ne336580 0.0 1009747
15:00+26n225983 0.3 10091294
18:00+23n34819 2.1 1009120
21:00+18nw1392100 5.8 101168
17 june, thu
thu1700:00+16nnw2596100 3.3 1012121
03:00+14n3109633 3.3 1014297
06:00+16nne39885 0.0 1016418
09:00+18nne56675 0.0 1018781
12:00+19n56550 0.0 10191465
15:00+19n56560 0.0 10201656
18:00+18n47730 0.0 1020509
21:00+13nnw36829 0.0 1022104